Location: Buckeye Ditch
(40.9104°N, 122.9517°W)
Time: 07:32:23
(UTC+00:00)

SR - Pass Details

Date: 28 May 2025
Orbit: 570 x 855 km, 66.7° (Epoch: 20 June)

Event Time Altitude Azimuth Distance (km) Brightness Sun altitude
Exits shadow 05:55:57 34° 178° (S) 1,364 ? -20.3°
Maximum altitude 05:58:18 59° 115° (ESE) 981 ? -20.6°
Drops below altitude 10° 06:03:58 10° 37° (NE) 2,476 ? -21.1°
Sets 06:06:27 0° 34° (NE) 3,397 ? -21.4°
